Simultaneous Nadir Overpasses (SNOs) Predictions

Prediction of SNOs between METOP-B and NPP Satellite Orbit:

Table of predicted SNOs for the next 14.0 days since TLE Epoch: 7/5/2016
Index Date (METOP-B) Time (METOP-B) Lat,Lon (METOP-B) SZA (METOP-B ) Date (NPP) Time (NPP) Lat,Lon (NPP) SZA (NPP ) Distance(km) Time Diff (sec)
1 07/19/2016 07:57:52 73.46, 54.11 52.82 07/19/2016 07:56:45 73.43, 51.41 52.96 85.52 67
2 07/19/2016 08:48:36 -73.36,-138.79 127.27 07/19/2016 08:47:27 -73.32,-141.01 127.17 70.93 69
3 07/19/2016 09:39:20 73.14, 28.06 52.55 07/19/2016 09:38:09 73.14, 26.69 52.64 44.05 71
4 07/19/2016 10:30:04 -73.04,-164.83 127.54 07/19/2016 10:28:51 -73.02,-165.74 127.48 29.59 73
5 07/19/2016 11:20:47 72.87, 2.14 52.32 07/19/2016 11:19:33 72.84, 1.95 52.33 6.60 74
